Year,Month,Day,Hour,Minute,Value (Times are PST for temperature in C)
2008,07,11,00,00,13.10
2008,07,11,00,01,13.10
2008,07,11,00,02,13.10
2008,07,11,00,03,13.10
2008,07,11,00,04,13.10
2008,07,11,00,05,13.00
2008,07,11,00,06,13.00
2008,07,11,00,07,13.00
2008,07,11,00,08,12.90
2008,07,11,00,09,12.90
2008,07,11,00,10,12.90
2008,07,11,00,11,12.90
2008,07,11,00,12,12.80
2008,07,11,00,13,12.80
2008,07,11,00,14,12.80
2008,07,11,00,15,12.80
2008,07,11,00,16,12.80
2008,07,11,00,17,12.80
2008,07,11,00,18,12.80
2008,07,11,00,19,12.80
2008,07,11,00,20,12.80
2008,07,11,00,21,12.70
2008,07,11,00,22,12.70
2008,07,11,00,23,12.70
2008,07,11,00,24,12.60
2008,07,11,00,25,12.60
2008,07,11,00,26,12.60
2008,07,11,00,27,12.60
2008,07,11,00,28,12.60
2008,07,11,00,29,12.60
2008,07,11,00,30,12.50
2008,07,11,00,31,12.50
2008,07,11,00,32,12.50
2008,07,11,00,33,12.50
2008,07,11,00,34,12.40
2008,07,11,00,35,12.40
2008,07,11,00,36,12.40
2008,07,11,00,37,12.40
2008,07,11,00,38,12.30
2008,07,11,00,39,12.30
2008,07,11,00,40,12.30
2008,07,11,00,41,12.30
2008,07,11,00,42,12.30
2008,07,11,00,43,12.30
2008,07,11,00,44,12.30
2008,07,11,00,45,12.30
2008,07,11,00,46,12.30
2008,07,11,00,47,12.30
2008,07,11,00,48,12.20
2008,07,11,00,49,12.20
2008,07,11,00,50,12.20
2008,07,11,00,51,12.20
2008,07,11,00,52,12.20
2008,07,11,00,53,12.20
2008,07,11,00,54,12.10
2008,07,11,00,55,12.10
2008,07,11,00,56,12.10
2008,07,11,00,57,12.10
2008,07,11,00,58,12.00
2008,07,11,00,59,12.00
2008,07,11,01,00,12.00
2008,07,11,01,01,12.00
2008,07,11,01,02,11.90
2008,07,11,01,03,11.90
2008,07,11,01,04,11.90
2008,07,11,01,05,11.80
2008,07,11,01,06,11.80
2008,07,11,01,07,11.80
2008,07,11,01,08,11.80
2008,07,11,01,09,11.80
2008,07,11,01,10,11.80
2008,07,11,01,11,11.80
2008,07,11,01,12,11.80
2008,07,11,01,13,11.80
2008,07,11,01,14,11.70
2008,07,11,01,15,11.70
2008,07,11,01,16,11.70
2008,07,11,01,17,11.70
2008,07,11,01,18,11.70
2008,07,11,01,19,11.60
2008,07,11,01,20,11.60
2008,07,11,01,21,11.60
2008,07,11,01,22,11.60
2008,07,11,01,23,11.60
2008,07,11,01,24,11.60
2008,07,11,01,25,11.60
2008,07,11,01,26,11.60
2008,07,11,01,27,11.60
2008,07,11,01,28,11.50
2008,07,11,01,29,11.40
2008,07,11,01,30,11.40
2008,07,11,01,31,11.40
2008,07,11,01,32,11.40
2008,07,11,01,33,11.40
2008,07,11,01,34,11.40
2008,07,11,01,35,11.30
2008,07,11,01,36,11.30
2008,07,11,01,37,11.30
2008,07,11,01,38,11.30
2008,07,11,01,39,11.30
2008,07,11,01,40,11.30
2008,07,11,01,41,11.20
2008,07,11,01,42,11.20
2008,07,11,01,43,11.20
2008,07,11,01,44,11.20
2008,07,11,01,45,11.20
2008,07,11,01,46,11.10
2008,07,11,01,47,11.10
2008,07,11,01,48,11.10
2008,07,11,01,49,11.10
2008,07,11,01,50,11.10
2008,07,11,01,51,11.10
2008,07,11,01,52,11.10
2008,07,11,01,53,11.10
2008,07,11,01,54,11.10
2008,07,11,01,55,11.10
2008,07,11,01,56,11.10
2008,07,11,01,57,10.90
2008,07,11,01,58,10.90
2008,07,11,01,59,10.90
2008,07,11,02,00,10.90
2008,07,11,02,01,10.90
2008,07,11,02,02,10.90
2008,07,11,02,03,10.90
2008,07,11,02,04,10.90
2008,07,11,02,05,10.90
2008,07,11,02,06,10.90
2008,07,11,02,07,10.90
2008,07,11,02,08,10.90
2008,07,11,02,09,10.90
2008,07,11,02,10,10.80
2008,07,11,02,11,10.80
2008,07,11,02,12,10.80
2008,07,11,02,13,10.80
2008,07,11,02,14,10.80
2008,07,11,02,15,10.80
2008,07,11,02,16,10.80
2008,07,11,02,17,10.80
2008,07,11,02,18,10.70
2008,07,11,02,19,10.70
2008,07,11,02,20,10.70
2008,07,11,02,21,10.70
2008,07,11,02,22,10.70
2008,07,11,02,23,10.70
2008,07,11,02,24,10.60
2008,07,11,02,25,10.60
2008,07,11,02,26,10.60
2008,07,11,02,27,10.60
2008,07,11,02,28,10.60
2008,07,11,02,29,10.60
2008,07,11,02,30,10.60
2008,07,11,02,31,10.60
2008,07,11,02,32,10.60
2008,07,11,02,33,10.70
2008,07,11,02,34,10.70
2008,07,11,02,35,10.70
2008,07,11,02,36,10.70
2008,07,11,02,37,10.70
2008,07,11,02,38,10.70
2008,07,11,02,39,10.70
2008,07,11,02,40,10.70
2008,07,11,02,41,10.70
2008,07,11,02,42,10.70
2008,07,11,02,43,10.80
2008,07,11,02,44,10.80
2008,07,11,02,45,10.80
2008,07,11,02,46,10.80
2008,07,11,02,47,10.80
2008,07,11,02,48,10.80
2008,07,11,02,49,10.80
2008,07,11,02,50,10.80
2008,07,11,02,51,10.80
2008,07,11,02,52,10.80
2008,07,11,02,53,10.70
2008,07,11,02,54,10.70
2008,07,11,02,55,10.70
2008,07,11,02,56,10.70
2008,07,11,02,57,10.70
2008,07,11,02,58,10.60
2008,07,11,02,59,10.60
2008,07,11,03,00,10.60
2008,07,11,03,01,10.60
2008,07,11,03,02,10.60
2008,07,11,03,03,10.60
2008,07,11,03,04,10.70
2008,07,11,03,05,10.70
2008,07,11,03,06,10.70
2008,07,11,03,07,10.70
2008,07,11,03,08,10.80
2008,07,11,03,09,10.80
2008,07,11,03,10,10.80
2008,07,11,03,11,10.90
2008,07,11,03,12,10.90
2008,07,11,03,13,10.90
2008,07,11,03,14,10.90
2008,07,11,03,15,10.90
2008,07,11,03,16,10.90
2008,07,11,03,17,10.90
2008,07,11,03,18,10.90
2008,07,11,03,19,10.90
2008,07,11,03,20,10.90
2008,07,11,03,21,10.90
2008,07,11,03,22,10.90
2008,07,11,03,23,10.90
2008,07,11,03,24,10.90
2008,07,11,03,25,10.90
2008,07,11,03,26,10.90
2008,07,11,03,27,10.90
2008,07,11,03,28,10.90
2008,07,11,03,29,10.80
2008,07,11,03,30,10.80
2008,07,11,03,31,10.80
2008,07,11,03,32,10.80
2008,07,11,03,33,10.80
2008,07,11,03,34,10.80
2008,07,11,03,35,10.80
2008,07,11,03,36,10.70
2008,07,11,03,37,10.70
2008,07,11,03,38,10.70
2008,07,11,03,39,10.70
2008,07,11,03,40,10.70
2008,07,11,03,41,10.70
2008,07,11,03,42,10.60
2008,07,11,03,43,10.60
2008,07,11,03,44,10.60
2008,07,11,03,45,10.60
2008,07,11,03,46,10.50
2008,07,11,03,47,10.40
2008,07,11,03,48,10.40
2008,07,11,03,49,10.40
2008,07,11,03,50,10.40
2008,07,11,03,51,10.40
2008,07,11,03,52,10.30
2008,07,11,03,53,10.30
2008,07,11,03,54,10.30
2008,07,11,03,55,10.30
2008,07,11,03,56,10.30
2008,07,11,03,57,10.20
2008,07,11,03,58,10.20
2008,07,11,03,59,10.20
2008,07,11,04,00,10.20
2008,07,11,04,01,10.20
2008,07,11,04,02,10.20
2008,07,11,04,03,10.20
2008,07,11,04,04,10.20
2008,07,11,04,05,10.20
2008,07,11,04,06,10.20
2008,07,11,04,07,10.10
2008,07,11,04,08,10.10
2008,07,11,04,09,10.10
2008,07,11,04,10,10.10
2008,07,11,04,11,10.10
2008,07,11,04,12,10.10
2008,07,11,04,13,10.10
2008,07,11,04,14,10.10
2008,07,11,04,15,10.00
2008,07,11,04,16,9.90
2008,07,11,04,17,9.90
2008,07,11,04,18,9.90
2008,07,11,04,19,9.90
2008,07,11,04,20,9.90
2008,07,11,04,21,9.90
2008,07,11,04,22,9.90
2008,07,11,04,23,9.90
2008,07,11,04,24,10.00
2008,07,11,04,25,10.10
2008,07,11,04,26,10.20
2008,07,11,04,27,10.20
2008,07,11,04,28,10.30
2008,07,11,04,29,10.30
2008,07,11,04,30,10.30
2008,07,11,04,31,10.30
2008,07,11,04,32,10.30
2008,07,11,04,33,10.30
2008,07,11,04,34,10.30
2008,07,11,04,35,10.30
2008,07,11,04,36,10.30
2008,07,11,04,37,10.30
2008,07,11,04,38,10.30
2008,07,11,04,39,10.30
2008,07,11,04,40,10.30
2008,07,11,04,41,10.30
2008,07,11,04,42,10.30
2008,07,11,04,43,10.30
2008,07,11,04,44,10.30
2008,07,11,04,45,10.30
2008,07,11,04,46,10.20
2008,07,11,04,47,10.20
2008,07,11,04,48,10.20
2008,07,11,04,49,10.20
2008,07,11,04,50,10.20
2008,07,11,04,51,10.20
2008,07,11,04,52,10.20
2008,07,11,04,53,10.10
2008,07,11,04,54,10.10
2008,07,11,04,55,10.10
2008,07,11,04,56,10.10
2008,07,11,04,57,10.10
2008,07,11,04,58,10.20
2008,07,11,04,59,10.20
2008,07,11,05,00,10.20
2008,07,11,05,01,10.30
2008,07,11,05,02,10.30
2008,07,11,05,03,10.40
2008,07,11,05,04,10.40
2008,07,11,05,05,10.40
2008,07,11,05,06,10.40
2008,07,11,05,07,10.40
2008,07,11,05,08,10.40
2008,07,11,05,09,10.40
2008,07,11,05,10,10.40
2008,07,11,05,11,10.40
2008,07,11,05,12,10.30
2008,07,11,05,13,10.30
2008,07,11,05,14,10.30
2008,07,11,05,15,10.40
2008,07,11,05,16,10.40
2008,07,11,05,17,10.40
2008,07,11,05,18,10.40
2008,07,11,05,19,10.40
2008,07,11,05,20,10.40
2008,07,11,05,21,10.40
2008,07,11,05,22,10.40
2008,07,11,05,23,10.40
2008,07,11,05,24,10.40
2008,07,11,05,25,10.40
2008,07,11,05,26,10.40
2008,07,11,05,27,10.30
2008,07,11,05,28,10.30
2008,07,11,05,29,10.30
2008,07,11,05,30,10.20
2008,07,11,05,31,10.20
2008,07,11,05,32,10.10
2008,07,11,05,33,10.10
2008,07,11,05,34,10.10
2008,07,11,05,35,10.10
2008,07,11,05,36,10.10
2008,07,11,05,37,10.10
2008,07,11,05,38,10.10
2008,07,11,05,39,10.10
2008,07,11,05,40,10.10
2008,07,11,05,41,10.10
2008,07,11,05,42,10.10
2008,07,11,05,43,10.10
2008,07,11,05,44,10.10
2008,07,11,05,45,10.10
2008,07,11,05,46,10.10
2008,07,11,05,47,10.10
2008,07,11,05,48,10.10
2008,07,11,05,49,10.10
2008,07,11,05,50,10.10
2008,07,11,05,51,10.20
2008,07,11,05,52,10.20
2008,07,11,05,53,10.20
2008,07,11,05,54,10.20
2008,07,11,05,55,10.20
2008,07,11,05,56,10.20
2008,07,11,05,57,10.20
2008,07,11,05,58,10.20
2008,07,11,05,59,10.20
2008,07,11,06,00,10.20
2008,07,11,06,01,10.20
2008,07,11,06,02,10.20
2008,07,11,06,03,10.20
2008,07,11,06,04,10.20
2008,07,11,06,05,10.20
2008,07,11,06,06,10.20
2008,07,11,06,07,10.30
2008,07,11,06,08,10.30
2008,07,11,06,09,10.30
2008,07,11,06,10,10.30
2008,07,11,06,11,10.30
2008,07,11,06,12,10.30
2008,07,11,06,13,10.30
2008,07,11,06,14,10.30
2008,07,11,06,15,10.30
2008,07,11,06,16,10.30
2008,07,11,06,17,10.40
2008,07,11,06,18,10.40
2008,07,11,06,19,10.40
2008,07,11,06,20,10.40
2008,07,11,06,21,10.40
2008,07,11,06,22,10.40
2008,07,11,06,23,10.40
2008,07,11,06,24,10.40
2008,07,11,06,25,10.40
2008,07,11,06,26,10.40
2008,07,11,06,27,10.40
2008,07,11,06,28,10.50
2008,07,11,06,29,10.60
2008,07,11,06,30,10.60
2008,07,11,06,31,10.60
2008,07,11,06,32,10.60
2008,07,11,06,33,10.60
2008,07,11,06,34,10.60
2008,07,11,06,35,10.60
2008,07,11,06,36,10.60
2008,07,11,06,37,10.60
2008,07,11,06,38,10.60
2008,07,11,06,39,10.60
2008,07,11,06,40,10.70
2008,07,11,06,41,10.70
2008,07,11,06,42,10.80
2008,07,11,06,43,10.80
2008,07,11,06,44,10.80
2008,07,11,06,45,10.90
2008,07,11,06,46,10.90
2008,07,11,06,47,10.90
2008,07,11,06,48,10.90
2008,07,11,06,49,11.00
2008,07,11,06,50,11.10
2008,07,11,06,51,11.10
2008,07,11,06,52,11.10
2008,07,11,06,53,11.10
2008,07,11,06,54,11.20
2008,07,11,06,55,11.20
2008,07,11,06,56,11.30
2008,07,11,06,57,11.30
2008,07,11,06,58,11.30
2008,07,11,06,59,11.40
2008,07,11,07,00,11.40
2008,07,11,07,01,11.40
2008,07,11,07,02,11.40
2008,07,11,07,03,11.40
2008,07,11,07,04,11.40
2008,07,11,07,05,11.40
2008,07,11,07,06,11.50
2008,07,11,07,07,11.60
2008,07,11,07,08,11.60
2008,07,11,07,09,11.60
2008,07,11,07,10,11.70
2008,07,11,07,11,11.80
2008,07,11,07,12,11.90
2008,07,11,07,13,12.00
2008,07,11,07,14,12.10
2008,07,11,07,15,12.10
2008,07,11,07,16,12.20
2008,07,11,07,17,12.20
2008,07,11,07,18,12.30
2008,07,11,07,19,12.40
2008,07,11,07,20,12.50
2008,07,11,07,21,12.50
2008,07,11,07,22,12.60
2008,07,11,07,23,12.60
2008,07,11,07,24,12.60
2008,07,11,07,25,12.60
2008,07,11,07,26,12.70
2008,07,11,07,27,12.80
2008,07,11,07,28,12.80
2008,07,11,07,29,12.80
2008,07,11,07,30,12.80
2008,07,11,07,31,12.80
2008,07,11,07,32,12.80
2008,07,11,07,33,12.90
2008,07,11,07,34,13.00
2008,07,11,07,35,13.10
2008,07,11,07,36,13.20
2008,07,11,07,37,13.30
2008,07,11,07,38,13.30
2008,07,11,07,39,13.40
2008,07,11,07,40,13.40
2008,07,11,07,41,13.50
2008,07,11,07,42,13.50
2008,07,11,07,43,13.60
2008,07,11,07,44,13.70
2008,07,11,07,45,13.70
2008,07,11,07,46,13.70
2008,07,11,07,47,13.80
2008,07,11,07,48,13.90
2008,07,11,07,49,13.90
2008,07,11,07,50,14.00
2008,07,11,07,51,14.00
2008,07,11,07,52,14.10
2008,07,11,07,53,14.10
2008,07,11,07,54,14.20
2008,07,11,07,55,14.20
2008,07,11,07,56,14.30
2008,07,11,07,57,14.40
2008,07,11,07,58,14.50
2008,07,11,07,59,14.50
2008,07,11,08,00,14.60
2008,07,11,08,01,14.70
2008,07,11,08,02,14.80
2008,07,11,08,03,14.80
2008,07,11,08,04,14.80
2008,07,11,08,05,14.80
2008,07,11,08,06,14.80
2008,07,11,08,07,14.90
2008,07,11,08,08,15.00
2008,07,11,08,09,15.00
2008,07,11,08,10,15.00
2008,07,11,08,11,15.10
2008,07,11,08,12,15.10
2008,07,11,08,13,15.10
2008,07,11,08,14,15.20
2008,07,11,08,15,15.30
2008,07,11,08,16,15.30
2008,07,11,08,17,15.40
2008,07,11,08,18,15.40
2008,07,11,08,19,15.40
2008,07,11,08,20,15.50
2008,07,11,08,21,15.50
2008,07,11,08,22,15.40
2008,07,11,08,23,15.40
2008,07,11,08,24,15.40
2008,07,11,08,25,15.40
2008,07,11,08,26,15.30
2008,07,11,08,27,15.30
2008,07,11,08,28,15.40
2008,07,11,08,29,15.40
2008,07,11,08,30,15.50
2008,07,11,08,31,15.50
2008,07,11,08,32,15.60
2008,07,11,08,33,15.70
2008,07,11,08,34,15.80
2008,07,11,08,35,15.80
2008,07,11,08,36,15.90
2008,07,11,08,37,16.00
2008,07,11,08,38,16.10
2008,07,11,08,39,16.10
2008,07,11,08,40,16.20
2008,07,11,08,41,16.20
2008,07,11,08,42,16.30
2008,07,11,08,43,16.40
2008,07,11,08,44,16.40
2008,07,11,08,45,16.40
2008,07,11,08,46,16.40
2008,07,11,08,47,16.40
2008,07,11,08,48,16.40
2008,07,11,08,49,16.40
2008,07,11,08,50,16.40
2008,07,11,08,51,16.30
2008,07,11,08,52,16.30
2008,07,11,08,53,16.20
2008,07,11,08,54,16.20
2008,07,11,08,55,16.20
2008,07,11,08,56,16.20
2008,07,11,08,57,16.20
2008,07,11,08,58,16.30
2008,07,11,08,59,16.30
2008,07,11,09,00,16.30
2008,07,11,09,01,16.30
2008,07,11,09,02,16.30
2008,07,11,09,03,16.30
2008,07,11,09,04,16.30
2008,07,11,09,05,16.30
2008,07,11,09,06,16.40
2008,07,11,09,07,16.30
2008,07,11,09,08,16.30
2008,07,11,09,09,16.30
2008,07,11,09,10,16.30
2008,07,11,09,11,16.40
2008,07,11,09,12,16.40
2008,07,11,09,13,16.50
2008,07,11,09,14,16.60
2008,07,11,09,15,16.60
2008,07,11,09,16,16.60
2008,07,11,09,17,16.60
2008,07,11,09,18,16.70
2008,07,11,09,19,16.70
2008,07,11,09,20,16.70
2008,07,11,09,21,16.70
2008,07,11,09,22,16.80
2008,07,11,09,23,16.80
2008,07,11,09,24,16.80
2008,07,11,09,25,16.70
2008,07,11,09,26,16.70
2008,07,11,09,27,16.80
2008,07,11,09,28,16.80
2008,07,11,09,29,16.80
2008,07,11,09,30,16.80
2008,07,11,09,31,16.70
2008,07,11,09,32,16.70
2008,07,11,09,33,16.70
2008,07,11,09,34,16.80
2008,07,11,09,35,16.90
2008,07,11,09,36,16.90
2008,07,11,09,37,17.00
2008,07,11,09,38,17.10
2008,07,11,09,39,17.20
2008,07,11,09,40,17.20
2008,07,11,09,41,17.20
2008,07,11,09,42,17.20
2008,07,11,09,43,17.20
2008,07,11,09,44,17.30
2008,07,11,09,45,17.30
2008,07,11,09,46,17.30
2008,07,11,09,47,17.20
2008,07,11,09,48,17.20
2008,07,11,09,49,17.30
2008,07,11,09,50,17.30
2008,07,11,09,51,17.30
2008,07,11,09,52,17.30
2008,07,11,09,53,17.30
2008,07,11,09,54,17.30
2008,07,11,09,55,17.30
2008,07,11,09,56,17.30
2008,07,11,09,57,17.40
2008,07,11,09,58,17.40
2008,07,11,09,59,17.50
2008,07,11,10,00,17.50
2008,07,11,10,01,17.50
2008,07,11,10,02,17.50
2008,07,11,10,03,17.60
2008,07,11,10,04,17.60
2008,07,11,10,05,17.60
2008,07,11,10,06,17.70
2008,07,11,10,07,17.70
2008,07,11,10,08,17.70
2008,07,11,10,09,17.70
2008,07,11,10,10,17.70
2008,07,11,10,11,17.70
2008,07,11,10,12,17.60
2008,07,11,10,13,17.60
2008,07,11,10,14,17.60
2008,07,11,10,15,17.50
2008,07,11,10,16,17.50
2008,07,11,10,17,17.50
2008,07,11,10,18,17.50
2008,07,11,10,19,17.60
2008,07,11,10,20,17.60
2008,07,11,10,21,17.60
2008,07,11,10,22,17.60
2008,07,11,10,23,17.70
2008,07,11,10,24,17.70
2008,07,11,10,25,17.70
2008,07,11,10,26,17.70
2008,07,11,10,27,17.70
2008,07,11,10,28,17.80
2008,07,11,10,29,17.90
2008,07,11,10,30,17.90
2008,07,11,10,31,17.90
2008,07,11,10,32,17.90
2008,07,11,10,33,18.00
2008,07,11,10,34,18.10
2008,07,11,10,35,18.20
2008,07,11,10,36,18.20
2008,07,11,10,37,18.30
2008,07,11,10,38,18.40
2008,07,11,10,39,18.50
2008,07,11,10,40,18.60
2008,07,11,10,41,18.50
2008,07,11,10,42,18.50
2008,07,11,10,43,18.50
2008,07,11,10,44,18.60
2008,07,11,10,45,18.60
2008,07,11,10,46,18.60
2008,07,11,10,47,18.70
2008,07,11,10,48,18.60
2008,07,11,10,49,18.60
2008,07,11,10,50,18.50
2008,07,11,10,51,18.60
2008,07,11,10,52,18.70
2008,07,11,10,53,18.70
2008,07,11,10,54,18.80
2008,07,11,10,55,18.80
2008,07,11,10,56,18.80
2008,07,11,10,57,18.80
2008,07,11,10,58,18.80
2008,07,11,10,59,18.80
2008,07,11,11,00,18.70
2008,07,11,11,01,18.70
2008,07,11,11,02,18.80
2008,07,11,11,03,18.80
2008,07,11,11,04,18.80
2008,07,11,11,05,18.90
2008,07,11,11,06,18.90
2008,07,11,11,07,18.80
2008,07,11,11,08,18.70
2008,07,11,11,09,18.70
2008,07,11,11,10,18.80
2008,07,11,11,11,18.90
2008,07,11,11,12,18.90
2008,07,11,11,13,18.90
2008,07,11,11,14,19.00
2008,07,11,11,15,19.10
2008,07,11,11,16,19.10
2008,07,11,11,17,19.20
2008,07,11,11,18,19.20
2008,07,11,11,19,19.30
2008,07,11,11,20,19.40
2008,07,11,11,21,19.50
2008,07,11,11,22,19.50
2008,07,11,11,23,19.50
2008,07,11,11,24,19.40
2008,07,11,11,25,19.50
2008,07,11,11,26,19.50
2008,07,11,11,27,19.60
2008,07,11,11,28,19.70
2008,07,11,11,29,19.80
2008,07,11,11,30,19.90
2008,07,11,11,31,19.90
2008,07,11,11,32,20.10
2008,07,11,11,33,20.20
2008,07,11,11,34,20.20
2008,07,11,11,35,20.30
2008,07,11,11,36,20.20
2008,07,11,11,37,20.20
2008,07,11,11,38,20.20
2008,07,11,11,39,20.10
2008,07,11,11,40,20.10
2008,07,11,11,41,19.90
2008,07,11,11,42,19.90
2008,07,11,11,43,19.80
2008,07,11,11,44,19.80
2008,07,11,11,45,19.90
2008,07,11,11,46,19.90
2008,07,11,11,47,19.90
2008,07,11,11,48,20.00
2008,07,11,11,49,20.10
2008,07,11,11,50,20.20
2008,07,11,11,51,20.20
2008,07,11,11,52,20.10
2008,07,11,11,53,20.10
2008,07,11,11,54,20.10
2008,07,11,11,55,20.10
2008,07,11,11,56,20.00
2008,07,11,11,57,19.90
2008,07,11,11,58,19.90
2008,07,11,11,59,19.90
2008,07,11,12,00,19.90
2008,07,11,12,01,19.90
2008,07,11,12,02,19.90
2008,07,11,12,03,20.10
2008,07,11,12,04,20.20
2008,07,11,12,05,20.30
2008,07,11,12,06,20.30
2008,07,11,12,07,20.30
2008,07,11,12,08,20.30
2008,07,11,12,09,20.40
2008,07,11,12,10,20.50
2008,07,11,12,11,20.50
2008,07,11,12,12,20.50
2008,07,11,12,13,20.50
2008,07,11,12,14,20.60
2008,07,11,12,15,20.60
2008,07,11,12,16,20.70
2008,07,11,12,17,20.70
2008,07,11,12,18,20.60
2008,07,11,12,19,20.60
2008,07,11,12,20,20.60
2008,07,11,12,21,20.60
2008,07,11,12,22,20.60
2008,07,11,12,23,20.70
2008,07,11,12,24,20.80
2008,07,11,12,25,20.90
2008,07,11,12,26,21.10
2008,07,11,12,27,21.10
2008,07,11,12,28,21.20
2008,07,11,12,29,21.30
2008,07,11,12,30,21.20
2008,07,11,12,31,21.20
2008,07,11,12,32,21.10
2008,07,11,12,33,21.10
2008,07,11,12,34,21.10
2008,07,11,12,35,21.10
2008,07,11,12,36,21.10
2008,07,11,12,37,21.10
2008,07,11,12,38,21.10
2008,07,11,12,39,21.00
2008,07,11,12,40,21.00
2008,07,11,12,41,21.10
2008,07,11,12,42,21.20
2008,07,11,12,43,21.10
2008,07,11,12,44,21.20
2008,07,11,12,45,21.30
2008,07,11,12,46,21.30
2008,07,11,12,47,21.30
2008,07,11,12,48,21.30
2008,07,11,12,49,21.30
2008,07,11,12,50,21.40
2008,07,11,12,51,21.40
2008,07,11,12,52,21.40
2008,07,11,12,53,21.30
2008,07,11,12,54,21.20
2008,07,11,12,55,21.20
2008,07,11,12,56,21.20
2008,07,11,12,57,21.20
2008,07,11,12,58,21.20
2008,07,11,12,59,21.30
2008,07,11,13,00,21.30
2008,07,11,13,01,21.30
2008,07,11,13,02,21.50
2008,07,11,13,03,21.60
2008,07,11,13,04,21.60
2008,07,11,13,05,21.60
2008,07,11,13,06,21.60
2008,07,11,13,07,21.60
2008,07,11,13,08,21.60
2008,07,11,13,09,21.60
2008,07,11,13,10,21.60
2008,07,11,13,11,21.60
2008,07,11,13,12,21.60
2008,07,11,13,13,21.70
2008,07,11,13,14,21.70
2008,07,11,13,15,21.80
2008,07,11,13,16,21.90
2008,07,11,13,17,21.90
2008,07,11,13,18,22.00
2008,07,11,13,19,22.00
2008,07,11,13,20,22.00
2008,07,11,13,21,22.00
2008,07,11,13,22,22.00
2008,07,11,13,23,22.10
2008,07,11,13,24,22.10
2008,07,11,13,25,22.10
2008,07,11,13,26,22.00
2008,07,11,13,27,22.10
2008,07,11,13,28,22.10
2008,07,11,13,29,22.20
2008,07,11,13,30,22.20
2008,07,11,13,31,22.30
2008,07,11,13,32,22.30
2008,07,11,13,33,22.20
2008,07,11,13,34,22.20
2008,07,11,13,35,22.10
2008,07,11,13,36,22.00
2008,07,11,13,37,21.90
2008,07,11,13,38,21.80
2008,07,11,13,39,21.80
2008,07,11,13,40,21.80
2008,07,11,13,41,21.90
2008,07,11,13,42,21.90
2008,07,11,13,43,21.90
2008,07,11,13,44,21.90
2008,07,11,13,45,21.90
2008,07,11,13,46,21.90
2008,07,11,13,47,21.90
2008,07,11,13,48,21.90
2008,07,11,13,49,21.80
2008,07,11,13,50,21.90
2008,07,11,13,51,21.90
2008,07,11,13,52,21.90
2008,07,11,13,53,21.90
2008,07,11,13,54,22.00
2008,07,11,13,55,22.20
2008,07,11,13,56,22.20
2008,07,11,13,57,22.30
2008,07,11,13,58,22.30
2008,07,11,13,59,22.40
2008,07,11,14,00,22.40
2008,07,11,14,01,22.50
2008,07,11,14,02,22.60
2008,07,11,14,03,22.60
2008,07,11,14,04,22.70
2008,07,11,14,05,22.70
2008,07,11,14,06,22.70
2008,07,11,14,07,22.70
2008,07,11,14,08,22.80
2008,07,11,14,09,22.90
2008,07,11,14,10,23.10
2008,07,11,14,11,23.30
2008,07,11,14,12,23.30
2008,07,11,14,13,23.40
2008,07,11,14,14,23.40
2008,07,11,14,15,23.50
2008,07,11,14,16,23.60
2008,07,11,14,17,23.60
2008,07,11,14,18,23.70
2008,07,11,14,19,23.70
2008,07,11,14,20,23.70
2008,07,11,14,21,23.70
2008,07,11,14,22,23.70
2008,07,11,14,23,23.70
2008,07,11,14,24,23.80
2008,07,11,14,25,23.80
2008,07,11,14,26,23.60
2008,07,11,14,27,23.40
2008,07,11,14,28,23.40
2008,07,11,14,29,23.30
2008,07,11,14,30,23.30
2008,07,11,14,31,23.30
2008,07,11,14,32,23.40
2008,07,11,14,33,23.50
2008,07,11,14,34,23.70
2008,07,11,14,35,23.70
2008,07,11,14,36,23.70
2008,07,11,14,37,23.70
2008,07,11,14,38,23.60
2008,07,11,14,39,23.60
2008,07,11,14,40,23.60
2008,07,11,14,41,23.60
2008,07,11,14,42,23.40
2008,07,11,14,43,23.50
2008,07,11,14,44,23.60
2008,07,11,14,45,23.60
2008,07,11,14,46,23.60
2008,07,11,14,47,23.70
2008,07,11,14,48,23.70
2008,07,11,14,49,23.70
2008,07,11,14,50,23.80
2008,07,11,14,51,23.90
2008,07,11,14,52,24.00
2008,07,11,14,53,24.10
2008,07,11,14,54,24.00
2008,07,11,14,55,23.90
2008,07,11,14,56,23.80
2008,07,11,14,57,23.70
2008,07,11,14,58,23.40
2008,07,11,14,59,23.30
2008,07,11,15,00,23.30
2008,07,11,15,01,23.30
2008,07,11,15,02,23.50
2008,07,11,15,03,23.70
2008,07,11,15,04,23.70
2008,07,11,15,05,23.70
2008,07,11,15,06,23.50
2008,07,11,15,07,23.40
2008,07,11,15,08,23.30
2008,07,11,15,09,23.20
2008,07,11,15,10,23.00
2008,07,11,15,11,22.80
2008,07,11,15,12,22.60
2008,07,11,15,13,22.50
2008,07,11,15,14,22.50
2008,07,11,15,15,22.50
2008,07,11,15,16,22.40
2008,07,11,15,17,22.40
2008,07,11,15,18,22.40
2008,07,11,15,19,22.40
2008,07,11,15,20,22.40
2008,07,11,15,21,22.40
2008,07,11,15,22,22.50
2008,07,11,15,23,22.50
2008,07,11,15,24,22.40
2008,07,11,15,25,22.30
2008,07,11,15,26,22.30
2008,07,11,15,27,22.30
2008,07,11,15,28,22.30
2008,07,11,15,29,22.40
2008,07,11,15,30,22.50
2008,07,11,15,31,22.40
2008,07,11,15,32,22.20
2008,07,11,15,33,22.10
2008,07,11,15,34,22.10
2008,07,11,15,35,22.10
2008,07,11,15,36,22.00
2008,07,11,15,37,22.00
2008,07,11,15,38,22.00
2008,07,11,15,39,22.00
2008,07,11,15,40,21.80
2008,07,11,15,41,21.60
2008,07,11,15,42,21.40
2008,07,11,15,43,21.30
2008,07,11,15,44,21.40
2008,07,11,15,45,21.50
2008,07,11,15,46,21.50
2008,07,11,15,47,21.40
2008,07,11,15,48,21.30
2008,07,11,15,49,21.30
2008,07,11,15,50,21.30
2008,07,11,15,51,21.10
2008,07,11,15,52,21.10
2008,07,11,15,53,21.10
2008,07,11,15,54,21.00
2008,07,11,15,55,20.90
2008,07,11,15,56,20.80
2008,07,11,15,57,20.80
2008,07,11,15,58,20.90
2008,07,11,15,59,21.00
2008,07,11,16,00,21.10
2008,07,11,16,01,21.10
2008,07,11,16,02,21.10
2008,07,11,16,03,21.10
2008,07,11,16,04,21.10
2008,07,11,16,05,21.30
2008,07,11,16,06,21.30
2008,07,11,16,07,21.30
2008,07,11,16,08,21.40
2008,07,11,16,09,21.40
2008,07,11,16,10,21.40
2008,07,11,16,11,21.50
2008,07,11,16,12,21.60
2008,07,11,16,13,21.50
2008,07,11,16,14,21.60
2008,07,11,16,15,21.60
2008,07,11,16,16,21.60
2008,07,11,16,17,21.70
2008,07,11,16,18,21.90
2008,07,11,16,19,22.00
2008,07,11,16,20,22.00
2008,07,11,16,21,22.00
2008,07,11,16,22,22.00
2008,07,11,16,23,22.10
2008,07,11,16,24,22.20
2008,07,11,16,25,22.30
2008,07,11,16,26,22.50
2008,07,11,16,27,22.60
2008,07,11,16,28,22.80
2008,07,11,16,29,22.80
2008,07,11,16,30,22.80
2008,07,11,16,31,22.80
2008,07,11,16,32,22.80
2008,07,11,16,33,22.70
2008,07,11,16,34,22.60
2008,07,11,16,35,22.40
2008,07,11,16,36,22.30
2008,07,11,16,37,22.20
2008,07,11,16,38,22.20
2008,07,11,16,39,22.10
2008,07,11,16,40,22.00
2008,07,11,16,41,21.90
2008,07,11,16,42,21.90
2008,07,11,16,43,22.00
2008,07,11,16,44,22.10
2008,07,11,16,45,22.20
2008,07,11,16,46,22.20
2008,07,11,16,47,22.20
2008,07,11,16,48,22.20
2008,07,11,16,49,22.30
2008,07,11,16,50,22.40
2008,07,11,16,51,22.40
2008,07,11,16,52,22.40
2008,07,11,16,53,22.40
2008,07,11,16,54,22.50
2008,07,11,16,55,22.40
2008,07,11,16,56,22.40
2008,07,11,16,57,22.30
2008,07,11,16,58,22.30
2008,07,11,16,59,22.40
2008,07,11,17,00,22.40
2008,07,11,17,01,22.50
2008,07,11,17,02,22.50
2008,07,11,17,03,22.50
2008,07,11,17,04,22.60
2008,07,11,17,05,22.60
2008,07,11,17,06,22.70
2008,07,11,17,07,22.70
2008,07,11,17,08,22.60
2008,07,11,17,09,22.50
2008,07,11,17,10,22.40
2008,07,11,17,11,22.30
2008,07,11,17,12,22.10
2008,07,11,17,13,22.00
2008,07,11,17,14,21.90
2008,07,11,17,15,21.90
2008,07,11,17,16,21.90
2008,07,11,17,17,21.90
2008,07,11,17,18,21.70
2008,07,11,17,19,21.50